TimeCDT,TemperatureF,Dew PointF,Humidity,Sea Level PressureIn,VisibilityMPH,Wind Direction,Wind SpeedMPH,Gust SpeedMPH,PrecipitationIn,Events,Conditions,WindDirDegrees,DateUTC
12:15 AM,48.2,44.6,87,30.18,10.0,NNE,6.9,-,N/A,,Clear,20,2013-10-13 05:15:00
12:35 AM,50.0,44.6,82,30.18,10.0,North,6.9,-,N/A,,Clear,10,2013-10-13 05:35:00
12:55 AM,50.0,44.6,82,30.18,10.0,North,6.9,-,N/A,,Clear,10,2013-10-13 05:55:00
1:15 AM,50.0,46.4,87,30.19,10.0,North,5.8,-,N/A,,Scattered Clouds,10,2013-10-13 06:15:00
1:35 AM,53.6,46.4,77,30.19,10.0,North,6.9,-,N/A,,Overcast,360,2013-10-13 06:35:00
1:55 AM,53.6,46.4,77,30.20,10.0,North,6.9,-,N/A,,Overcast,360,2013-10-13 06:55:00
2:15 AM,53.6,46.4,77,30.21,10.0,North,6.9,-,N/A,,Overcast,10,2013-10-13 07:15:00
2:35 AM,53.6,44.6,72,30.21,10.0,North,8.1,-,N/A,,Overcast,360,2013-10-13 07:35:00
2:55 AM,53.6,44.6,72,30.21,10.0,North,6.9,-,N/A,,Overcast,360,2013-10-13 07:55:00
3:15 AM,53.6,44.6,72,30.21,10.0,North,8.1,-,N/A,,Overcast,10,2013-10-13 08:15:00
3:35 AM,53.6,44.6,72,30.21,10.0,North,6.9,-,N/A,,Overcast,10,2013-10-13 08:35:00
3:55 AM,53.6,44.6,72,30.21,10.0,North,6.9,-,N/A,,Overcast,10,2013-10-13 08:55:00
4:15 AM,53.6,44.6,72,30.20,10.0,North,9.2,-,N/A,,Overcast,10,2013-10-13 09:15:00
4:35 AM,51.8,44.6,76,30.21,10.0,North,5.8,-,N/A,,Mostly Cloudy,10,2013-10-13 09:35:00
4:55 AM,51.8,44.6,76,30.21,10.0,North,5.8,-,N/A,,Mostly Cloudy,10,2013-10-13 09:55:00
5:15 AM,51.8,46.4,82,30.22,10.0,North,4.6,-,N/A,,Overcast,360,2013-10-13 10:15:00
5:35 AM,53.6,46.4,77,30.22,10.0,North,5.8,-,N/A,,Overcast,360,2013-10-13 10:35:00
5:55 AM,53.6,46.4,77,30.22,10.0,NNE,5.8,-,N/A,,Overcast,20,2013-10-13 10:55:00
6:17 AM,55.4,46.4,72,30.22,10.0,North,11.5,18.4,N/A,,Mostly Cloudy,10,2013-10-13 11:17:00
6:50 AM,51.8,46.4,82,30.23,10.0,North,11.5,-,N/A,,Scattered Clouds,10,2013-10-13 11:50:00
7:50 AM,51.8,46.4,82,30.24,10.0,North,11.5,-,N/A,,Scattered Clouds,350,2013-10-13 12:50:00
8:55 AM,55.4,46.4,72,30.26,10.0,North,11.5,-,N/A,,Mostly Cloudy,350,2013-10-13 13:55:00
9:55 AM,60.8,46.4,59,30.27,10.0,NNE,11.5,17.3,N/A,,Overcast,30,2013-10-13 14:55:00
10:55 AM,62.6,50.0,63,30.29,10.0,ENE,11.5,-,N/A,,Overcast,70,2013-10-13 15:55:00
12:50 PM,69.8,55.4,60,30.27,10.0,East,11.5,-,N/A,,Overcast,80,2013-10-13 17:50:00
1:50 PM,69.8,57.2,64,30.23,10.0,NE,11.5,-,N/A,,Overcast,50,2013-10-13 18:50:00
3:50 PM,68.0,55.4,64,30.20,10.0,East,13.8,-,N/A,,Overcast,100,2013-10-13 20:50:00
4:50 PM,69.8,57.2,64,30.17,10.0,ENE,15.0,-,N/A,,Overcast,70,2013-10-13 21:50:00
5:50 PM,68.0,59.0,73,30.18,10.0,ENE,16.1,-,N/A,,Overcast,70,2013-10-13 22:50:00
6:50 PM,66.2,57.2,73,30.18,10.0,ENE,13.8,-,N/A,,Overcast,70,2013-10-13 23:50:00
8:50 PM,66.2,59.0,78,30.20,10.0,East,10.4,-,N/A,,Overcast,90,2013-10-14 01:50:00
9:15 PM,64.4,59.0,83,30.21,10.0,SE,3.5,-,N/A,,Overcast,130,2013-10-14 02:15:00
9:35 PM,64.4,57.2,77,30.20,10.0,ESE,8.1,-,N/A,,Mostly Cloudy,110,2013-10-14 02:35:00
9:55 PM,64.4,57.2,77,30.20,10.0,East,6.9,-,N/A,,Scattered Clouds,100,2013-10-14 02:55:00
10:15 PM,64.4,57.2,77,30.19,10.0,East,10.4,-,N/A,,Mostly Cloudy,90,2013-10-14 03:15:00
10:35 PM,64.4,57.2,77,30.19,10.0,East,11.5,-,N/A,,Overcast,90,2013-10-14 03:35:00
10:55 PM,64.4,57.2,77,30.18,10.0,East,10.4,-,N/A,,Mostly Cloudy,90,2013-10-14 03:55:00
11:15 PM,64.4,57.2,77,30.17,10.0,East,9.2,-,N/A,,Mostly Cloudy,100,2013-10-14 04:15:00
11:35 PM,64.4,57.2,77,30.16,10.0,ESE,9.2,-,N/A,,Mostly Cloudy,110,2013-10-14 04:35:00
11:55 PM,64.4,57.2,77,30.16,10.0,ESE,10.4,-,N/A,,Overcast,110,2013-10-14 04:55:00